RRR6104 LMML-LXGB

Flight info

Callsign RRR6104
Flight time N/A
Altitude 30000
Route GZO M732 UPLIT/N0458F360 DCT SENTI M732 MEGAN DCT TABOT/N0456F370 DCT MAMOM T100 GOSOS DCT PIMOS
Aircraft C17/H-SDFGHIJ5KM1RTUWXY/LB1D1

Departure

Time N/A
Airport Malta International Airport (LMML)

Arrival

Time 2026-05-04 19:26
Airport Gibraltar Airport (LXGB)
Time Latitude Longitude Altitude Speed Heading
2026-05-04 18:54 36.24389 -2.68231 36975 ft 348 kts 257°
2026-05-04 18:55 36.23214 -2.74087 36976 ft 349 kts 257°
2026-05-04 18:55 36.21372 -2.82817 36977 ft 349 kts 253°
2026-05-04 18:56 36.20643 -2.85689 36746 ft 351 kts 257°
2026-05-04 18:56 36.20271 -2.88652 36500 ft 346 kts 265°
2026-05-04 18:56 36.20208 -2.91609 36264 ft 342 kts 267°
2026-05-04 18:56 36.20142 -2.94542 36021 ft 340 kts 265°
2026-05-04 18:57 36.19951 -2.97416 35792 ft 339 kts 263°
2026-05-04 18:57 36.19741 -3.00327 35560 ft 339 kts 264°
2026-05-04 18:57 36.19582 -3.03230 35327 ft 337 kts 264°
2026-05-04 18:57 36.19434 -3.06113 35104 ft 334 kts 264°
2026-05-04 18:58 36.19268 -3.08977 34875 ft 333 kts 264°
2026-05-04 18:58 36.19097 -3.11834 34649 ft 333 kts 264°
2026-05-04 18:58 36.18931 -3.14697 34427 ft 332 kts 264°
2026-05-04 18:58 36.18767 -3.17538 34202 ft 330 kts 264°
2026-05-04 18:59 36.18603 -3.20327 33978 ft 328 kts 263°
2026-05-04 18:59 36.18438 -3.23130 33716 ft 326 kts 263°
2026-05-04 18:59 36.18272 -3.25925 33474 ft 326 kts 263°
2026-05-04 18:59 36.18106 -3.28720 33215 ft 325 kts 263°
2026-05-04 19:00 36.17942 -3.31497 32964 ft 323 kts 263°
2026-05-04 19:00 36.17776 -3.34255 32715 ft 320 kts 264°
2026-05-04 19:00 36.17613 -3.36995 32473 ft 319 kts 264°
2026-05-04 19:00 36.17449 -3.39727 32226 ft 318 kts 264°
2026-05-04 19:01 36.17283 -3.42454 31989 ft 317 kts 264°
2026-05-04 19:01 36.17118 -3.45174 31750 ft 317 kts 264°
2026-05-04 19:01 36.16953 -3.47891 31507 ft 316 kts 264°
2026-05-04 19:01 36.16788 -3.50598 31254 ft 315 kts 264°
2026-05-04 19:02 36.16621 -3.53307 30874 ft 315 kts 264°
2026-05-04 19:02 36.16459 -3.55944 30499 ft 310 kts 264°
2026-05-04 19:02 36.16293 -3.58640 30124 ft 306 kts 264°
2026-05-04 19:02 36.16129 -3.61274 29697 ft 316 kts 264°
2026-05-04 19:03 36.15944 -3.64195 29316 ft 360 kts 264°
2026-05-04 19:03 36.15753 -3.67295 28947 ft 359 kts 264°
2026-05-04 19:03 36.15564 -3.70351 28538 ft 354 kts 264°
2026-05-04 19:03 36.15371 -3.73392 28125 ft 356 kts 264°
2026-05-04 19:04 36.15181 -3.76398 27714 ft 341 kts 264°
2026-05-04 19:04 36.15002 -3.79237 27291 ft 322 kts 264°
2026-05-04 19:04 36.14829 -3.81940 26886 ft 309 kts 264°
2026-05-04 19:04 36.14657 -3.84596 26479 ft 311 kts 264°
2026-05-04 19:05 36.14484 -3.87286 26102 ft 315 kts 264°
2026-05-04 19:05 36.14312 -3.89971 25728 ft 313 kts 264°
2026-05-04 19:05 36.14139 -3.92649 25353 ft 311 kts 264°
2026-05-04 19:05 36.13969 -3.95269 24991 ft 311 kts 264°
2026-05-04 19:06 36.13795 -3.97942 24628 ft 311 kts 264°
2026-05-04 19:06 36.13620 -4.00611 24270 ft 310 kts 264°
2026-05-04 19:06 36.13447 -4.03268 23914 ft 309 kts 264°
2026-05-04 19:06 36.13272 -4.05917 23558 ft 308 kts 264°
2026-05-04 19:07 36.13097 -4.08556 23131 ft 309 kts 264°
2026-05-04 19:07 36.12923 -4.11199 22730 ft 307 kts 264°
2026-05-04 19:07 36.12748 -4.13824 22314 ft 304 kts 264°
2026-05-04 19:07 36.12576 -4.16417 21915 ft 303 kts 264°
2026-05-04 19:08 36.12407 -4.18950 21359 ft 270 kts 264°
2026-05-04 19:08 36.12256 -4.21234 20000 ft 273 kts 264°
2026-05-04 19:08 36.12092 -4.23611 18568 ft 277 kts 264°
2026-05-04 19:08 36.11931 -4.25998 17048 ft 275 kts 264°
2026-05-04 19:09 36.11775 -4.28316 15558 ft 271 kts 264°
2026-05-04 19:09 36.11602 -4.30833 14403 ft 308 kts 265°
2026-05-04 19:09 36.11425 -4.33449 13537 ft 304 kts 265°
2026-05-04 19:09 36.11249 -4.36048 12529 ft 303 kts 265°
2026-05-04 19:10 36.11072 -4.38634 11543 ft 302 kts 265°
2026-05-04 19:10 36.10894 -4.41215 10572 ft 300 kts 264°
2026-05-04 19:10 36.10717 -4.43775 9627 ft 298 kts 264°
2026-05-04 19:10 36.10541 -4.46322 8717 ft 294 kts 265°
2026-05-04 19:11 36.10369 -4.48802 7961 ft 285 kts 265°
2026-05-04 19:11 36.10202 -4.51212 7240 ft 279 kts 265°
2026-05-04 19:11 36.10037 -4.53574 6510 ft 273 kts 264°
2026-05-04 19:11 36.09874 -4.55891 5761 ft 268 kts 264°
2026-05-04 19:12 36.09718 -4.58127 5346 ft 256 kts 265°
2026-05-04 19:12 36.09418 -4.62368 4526 ft 237 kts 265°
2026-05-04 19:12 36.09276 -4.64377 4098 ft 230 kts 265°
2026-05-04 19:13 36.09139 -4.66306 3711 ft 221 kts 265°
2026-05-04 19:13 36.08936 -4.68219 3297 ft 227 kts 258°
2026-05-04 19:13 36.08430 -4.70006 3119 ft 215 kts 246°
2026-05-04 19:13 36.07653 -4.71619 3118 ft 216 kts 243°
2026-05-04 19:14 36.07327 -4.73346 3117 ft 207 kts 278°
2026-05-04 19:14 36.08082 -4.74826 3029 ft 213 kts 320°
2026-05-04 19:14 36.09269 -4.75788 2939 ft 194 kts 318°
2026-05-04 19:14 36.10125 -4.76956 2813 ft 177 kts 295°
2026-05-04 19:15 36.10282 -4.78391 2774 ft 169 kts 272°
2026-05-04 19:15 36.10405 -4.79860 2763 ft 169 kts 280°
2026-05-04 19:15 36.10723 -4.81249 2728 ft 169 kts 287°
2026-05-04 19:15 36.11172 -4.82527 2748 ft 162 kts 296°
2026-05-04 19:16 36.11743 -4.83798 2926 ft 166 kts 296°
2026-05-04 19:16 36.12299 -4.85015 3103 ft 168 kts 296°
2026-05-04 19:16 36.12818 -4.86283 3250 ft 164 kts 290°
2026-05-04 19:16 36.13190 -4.87707 3389 ft 178 kts 284°
2026-05-04 19:17 36.13449 -4.89172 3524 ft 174 kts 281°
2026-05-04 19:17 36.13715 -4.90594 3632 ft 155 kts 281°
2026-05-04 19:17 36.13991 -4.91807 3783 ft 164 kts 287°
2026-05-04 19:17 36.14359 -4.93246 3978 ft 173 kts 285°
2026-05-04 19:18 36.14640 -4.94727 4109 ft 181 kts 279°
2026-05-04 19:18 36.14745 -4.96254 4230 ft 171 kts 274°
2026-05-04 19:18 36.14785 -4.97231 4299 ft 175 kts 275°
2026-05-04 19:18 36.14867 -4.98769 4409 ft 178 kts 275°
2026-05-04 19:19 36.14957 -5.00314 4419 ft 186 kts 275°
2026-05-04 19:19 36.15049 -5.01921 4436 ft 183 kts 275°
2026-05-04 19:19 36.15122 -5.03517 4385 ft 189 kts 274°
2026-05-04 19:19 36.15174 -5.05077 4356 ft 167 kts 273°
2026-05-04 19:20 36.15182 -5.06445 4330 ft 161 kts 270°
2026-05-04 19:20 36.15129 -5.07848 4285 ft 160 kts 269°
2026-05-04 19:20 36.15108 -5.09219 4203 ft 161 kts 273°
2026-05-04 19:20 36.15144 -5.10582 4124 ft 156 kts 275°
2026-05-04 19:21 36.15174 -5.11942 4047 ft 159 kts 274°
2026-05-04 19:21 36.15193 -5.13277 4025 ft 154 kts 274°
2026-05-04 19:21 36.15207 -5.14629 3964 ft 158 kts 274°
2026-05-04 19:21 36.15221 -5.15940 3834 ft 139 kts 274°
2026-05-04 19:22 36.15237 -5.17096 3576 ft 136 kts 275°
2026-05-04 19:22 36.15256 -5.18253 3291 ft 133 kts 275°
2026-05-04 19:22 36.15211 -5.19394 3008 ft 135 kts 268°
2026-05-04 19:22 36.15157 -5.20554 2772 ft 133 kts 272°
2026-05-04 19:23 36.15145 -5.21666 2591 ft 127 kts 273°
2026-05-04 19:23 36.15115 -5.22761 2428 ft 127 kts 271°
2026-05-04 19:23 36.15096 -5.23838 2259 ft 125 kts 271°
2026-05-04 19:23 36.15108 -5.24955 2072 ft 135 kts 272°
2026-05-04 19:24 36.15131 -5.26129 1820 ft 137 kts 272°
2026-05-04 19:24 36.15165 -5.27283 1577 ft 132 kts 273°
2026-05-04 19:24 36.15205 -5.28395 1322 ft 131 kts 274°
2026-05-04 19:24 36.15239 -5.29515 1072 ft 128 kts 272°
2026-05-04 19:25 36.15273 -5.30593 812 ft 123 kts 270°
2026-05-04 19:25 36.15278 -5.31661 611 ft 127 kts 266°
2026-05-04 19:25 36.15211 -5.32774 356 ft 132 kts 264°
2026-05-04 19:25 36.15164 -5.33901 98 ft 129 kts 267°
2026-05-04 19:26 36.15127 -5.34889 25 ft 95 kts 266°
2026-05-04 19:26 36.15108 -5.35408 22 ft 27 kts 268°
2026-05-04 19:26 36.15108 -5.35394 23 ft 17 kts 268°
2026-05-04 19:26 36.15112 -5.35249 23 ft 11 kts 268°
2026-05-04 19:27 36.15116 -5.35135 24 ft 17 kts 268°
2026-05-04 19:27 36.15120 -5.34996 21 ft 14 kts 268°
2026-05-04 19:27 36.15123 -5.34888 24 ft 10 kts 268°
2026-05-04 19:27 36.15126 -5.34819 22 ft 7 kts 269°
2026-05-04 19:28 36.15127 -5.34788 22 ft 2 kts 221°
2026-05-04 19:28 36.15075 -5.34787 19 ft 17 kts 175°
2026-05-04 19:28 36.14980 -5.34748 21 ft 7 kts 116°
2026-05-04 19:28 36.14979 -5.34740 19 ft 0 kts 88°